Date,TemperatureHighF,TemperatureAvgF,TemperatureLowF,DewpointHighF,DewpointAvgF,DewpointLowF,HumidityHigh,HumidityAvg,HumidityLow,PressureMaxIn,PressureMinIn,WindSpeedMaxMPH,WindSpeedAvgMPH,GustSpeedMaxMPH,PrecipitationSumIn
2013-3-1,30,27,24,22,19,16,81,73,63,30.19,30.05,6,3,14,0.00
2013-3-2,28,24,19,19,16,13,81,74,64,30.91,30.12,4,2,12,0.00
2013-3-3,36,22,11,18,13,7,86,70,44,30.13,30.06,5,2,11,0.00
2013-3-4,42,22,10,18,12,6,85,68,34,30.21,30.12,2,1,6,0.00
2013-3-5,38,26,16,25,19,12,86,76,57,30.19,29.94,8,4,55,0.00
2013-3-6,42,32,27,29,26,22,89,78,63,30.27,29.98,8,2,14,0.00
2013-3-7,40,32,22,29,24,17,92,73,46,30.46,30.26,4,2,11,0.00
2013-3-8,50,30,16,27,20,12,90,68,34,30.56,30.45,2,1,7,0.00
2013-3-9,51,36,24,32,27,21,88,69,42,30.45,30.06,4,1,12,0.00
2013-3-10,59,48,38,43,38,31,87,67,49,30.07,29.83,5,1,14,0.02
2013-3-11,55,48,36,49,42,32,95,82,59,29.84,29.52,9,3,21,0.32
2013-3-12,40,33,29,32,28,23,93,81,57,29.95,29.72,8,5,19,0.00
2013-3-13,30,29,28,26,24,22,87,82,77,29.95,29.92,5,3,11,0.00
2013-3-14,47,32,22,23,18,14,78,57,32,30.31,30.14,8,3,12,0.00
2013-3-15,42,35,31,33,30,21,90,84,66,30.11,29.91,8,2,14,0.00
2013-3-16,35,29,24,30,24,22,95,83,64,30.08,29.86,6,2,14,0.02
2013-3-17,35,25,17,23,14,7,85,64,39,30.35,30.08,6,3,14,0.00
2013-3-18,34,28,18,32,23,12,96,81,66,30.25,29.62,9,3,24,0.01
2013-3-19,34,25,22,31,19,15,90,76,65,29.98,29.64,13,6,62,0.00
2013-3-20,31,22,15,18,13,9,78,66,51,30.00,29.95,8,4,20,0.00
2013-3-21,32,24,15,23,18,9,88,76,64,30.00,29.90,8,5,18,0.00
2013-3-22,44,31,25,25,20,16,77,64,41,30.09,29.99,6,3,13,0.00
2013-3-23,39,31,25,25,23,20,85,71,56,30.18,30.08,3,1,8,0.00
2013-3-24,40,29,22,29,23,19,92,79,52,30.12,29.77,8,3,21,0.00
2013-3-25,43,35,30,30,26,24,83,72,56,30.00,29.70,8,5,21,0.00
2013-3-26,34,34,33,28,27,26,78,76,75,30.02,30.00,3,2,8,0.00
2013-3-27,48,40,30,30,26,24,82,59,41,30.27,30.18,9,5,17,0.00
2013-3-28,56,41,30,29,25,22,81,56,30,30.33,30.26,6,3,14,0.00
2013-3-29,67,42,27,36,23,15,78,51,19,30.35,30.25,4,1,10,0.00
2013-3-30,62,44,27,31,23,9,84,48,13,30.28,29.96,6,2,16,0.00
2013-3-31,59,47,39,42,36,27,88,68,45,29.96,29.69,10,4,24,0.02